sat.trackr.live / text

‹ back to catalog

YAOGAN-39 01B

NORAD 57728 · 2023-130B

PAYLOAD ACTIVE UNKNOWN

§ Identity

Operator
Country
PRC
Launch date
2023-08-31
Launch site
XICLF
Launch vehicle
Mass (kg)
RCS (m²)

External: N2YO · Heavens-Above · Gunter

§ Orbital elements

Epoch: 2026-05-24T21:08:52.941120Z

Period
94.99 min
Inclination
34.9948°
Eccentricity
0.0009642
Mean motion
15.16022034 rev/d
Perigee alt
511.2 km
Apogee alt
524.5 km
Semi-major
6,896.0 km
B*
2.6641e-4
RAAN
297.1791°
Arg perigee
236.4632°
Mean anomaly
123.5160°
Rev number
15,194

§ Raw data

YAOGAN-39 01B1 57728U 23130B   26144.88116830  .00005213  00000+0  26641-3 0  99922 57728  34.9948 297.1791 0009642 236.4632 123.5160 15.16022034151943

JSON: /api/v1/satellites/57728 · /tle

For live sub-satellite position, see the globe view (requires WebGL).

§ Visibility from observer

Set your observer location to see the next 7 days of passes ≥ 10°. The values pass through the URL so the page stays shareable.

No JS? Fill the form by hand. The geolocation button needs JavaScript.